Flag for France Weather past 2 weeks in Nantes, France

Now
48 °F

Clear.


Feels Like: 46 °F
Forecast: 50 / 68 °F
Wind: 5 mph from North

Location: Nantes Airport

Current Time: Sep 24, 2014 at 3:13:20 AM

Latest Report: Sep 24, 2014 at 2:30 AM


Visibility: 4 mi

Pressure: 30.04 "Hg

Humidity: 82%

Dew point: 43 °F

Location of NantesLocation

Historic Weather in Nantes — Graph

°F

Nantes temperature yesterday

Maximum temperature yesterday: 66 °F (at 2:00 PM)
Minimum temperature yesterday: 48 °F (at 7:30 AM)
Average temperature yesterday: 58 °F

Past Weeks' High & Low Weather Summary

 TemperatureHumidityPressure
High84 °F (Sep 16, 2:30 PM)100% (Sep 9, 2:30 AM)30.21 "Hg (Sep 9, 2:30 AM)
Low48 °F (Sep 23, 7:30 AM)34% (Sep 10, 5:30 PM)29.65 "Hg (Sep 17, 5:00 AM)
Average67 °F69%29.96 "Hg
* Reported Sep 9 2:00 AM — Sep 24 2:00 AM, Nantes, Weather by CustomWeather, © 2014

Note: Actual official high and low records may vary slightly from our data, if they occured in-between our weather recording intervals... More about our weather records

Advertising

Nantes weather history for previous 24 hours

 ConditionsComfort  
Time TempWeatherWind HumidityBarometerVisibility
2:00 AM
Sep 24
52 °FClear.3 mph72%30.04 "Hg10 mi
1:30 AM57 °FClear.3 mph67%30.04 "Hg10 mi
1:00 AM55 °FPassing clouds.5 mph72%30.04 "HgN/A
12:30 AM55 °FPassing clouds.5 mph72%30.04 "HgN/A
12:00 AM57 °FPassing clouds.3 mph67%30.04 "HgN/A
11:30 PM
Sep 23
55 °FPassing clouds.5 mph72%30.04 "HgN/A
11:00 PM55 °FPassing clouds.5 mph72%30.04 "HgN/A
10:30 PM55 °FPassing clouds.5 mph72%30.07 "HgN/A
10:00 PM55 °FPassing clouds.5 mph67%30.07 "HgN/A
9:30 PM57 °FPassing clouds.5 mph63%30.07 "HgN/A
9:00 PM61 °FSunny.2 mph55%30.04 "Hg10 mi
8:30 PM63 °FSunny.5 mph52%30.04 "Hg10 mi
8:00 PM63 °FSunny.7 mph52%30.04 "Hg10 mi
7:30 PM64 °FPassing clouds.9 mph46%30.04 "HgN/A
7:00 PM64 °FPassing clouds.10 mph46%30.01 "HgN/A
6:30 PM66 °FPassing clouds.9 mph43%30.01 "HgN/A
6:00 PM66 °FPassing clouds.12 mph46%30.01 "HgN/A
5:30 PM66 °FPassing clouds.12 mph43%30.04 "HgN/A
5:00 PM66 °FPassing clouds.12 mph43%30.04 "HgN/A
4:30 PM66 °FPassing clouds.10 mph43%30.04 "HgN/A
4:00 PM66 °FPassing clouds.10 mph46%30.07 "HgN/A
3:30 PM66 °FPassing clouds.12 mph46%30.07 "HgN/A
3:00 PM66 °FPassing clouds.9 mph43%30.07 "HgN/A
2:30 PM66 °FPassing clouds.13 mph43%30.07 "HgN/A
2:00 PM66 °FPassing clouds.14 mph43%30.09 "HgN/A
1:30 PM64 °FPassing clouds.16 mph49%30.09 "HgN/A
1:00 PM63 °FPassing clouds.15 mph56%30.12 "HgN/A
12:30 PM63 °FPassing clouds.13 mph59%30.12 "HgN/A
12:00 PM61 °FSunny.13 mph63%30.12 "Hg10 mi
11:30 AM59 °FClear.12 mph68%30.15 "Hg4 mi
11:00 AM57 °FClear.15 mph72%30.15 "Hg4 mi
10:30 AM55 °FClear.9 mph77%30.15 "Hg4 mi
10:00 AM54 °FClear.8 mph82%30.15 "Hg3 mi
9:30 AM52 °FClear.7 mph82%30.15 "Hg3 mi
9:00 AM50 °FFog.6 mph88%30.15 "Hg3 mi
8:30 AM50 °FFog.5 mph88%30.15 "Hg3 mi
8:00 AM48 °FFog.5 mph94%30.15 "Hg3 mi
7:30 AM48 °FClear.6 mph94%30.15 "Hg4 mi
7:00 AM50 °FClear.5 mph88%30.12 "Hg4 mi
6:30 AM50 °FClear.5 mph88%30.12 "Hg4 mi
6:00 AM50 °FClear.5 mph88%30.12 "Hg4 mi
5:30 AM52 °FClear.6 mph82%30.12 "Hg5 mi
5:00 AM50 °FClear.5 mph88%30.12 "Hg6 mi
4:30 AM52 °FClear.5 mph82%30.15 "Hg5 mi
4:00 AM52 °FClear.5 mph82%30.15 "Hg6 mi
3:30 AM52 °FClear.5 mph88%30.15 "HgN/A
3:00 AM52 °FClear.3 mph82%30.15 "HgN/A
Weather by CustomWeather, © 2014

See weather overviewHow to use our weather pages